Погода в Астаре

Погода в Астаре : погода сейчас, прогноз погоды и архив. Всё, что Вы хотите узнать о погоде в Астаре!

Поиск расширенной информации на нашем сайте:

Другие новости

Новости СМИ2

Главная страница сайта

Новости сайта

02.10.2013

Напоминаем, что на нашем новом сайте вы можете получить высокодетализированные прогнозы погоды по пунктам России, СНГ и мира (включающие важные для авиации метеовеличины, такие как направление и скорость ветра, видимость, явления погоды, количество и форма облачности, нижняя и верхняя граница облачности), а также ознакомиться с разнообразными материалами по авиационной метеорологии и подборкой полезных ссылок на эту тему.

Сайт Метеоцентр.Азия посвящён разработке технологий оптимизации авиаметеорологического обслуживания, включая проектирование и перспективное создание нескольких автоматизированных авиаметеорологических систем:
- система выпуска высокодетальных прогностических карт явлений погоды для нижнего воздушного пространства по России и ближнему зарубежью;
- система верификации прогнозов TAF (выпускаемых синоптиками официальных АМСГ РФ и ближнего зарубежья) и AUTOTAF (выпускаемых сайтом Метеоцентр.Азия) - выявление ошибок, онлайн-сопоставление с фактической погодой METAR, автоматическое внесение коррективов в прогнозы при резком отклонении фактической погоды от прогноза, подсчёт оправдываемости прогнозов по элементам и в целом;
- система обработки, анализа и отображения авиаметеорологической информации для применения провайдерами метеорологической информации.

Рекомендуем: Заправка картриджей Молодежная для Samsung.

Погода в Астаре - сегодня

Время (UTC), дата Ветер
(°,м/с) 
Видим.   Явления Облачность Т
(°С)
Тd
(°С)
f(%) Тe
(°С)
Pmin
(гПа)
dP
(гПа)
Po
(мм)
O2
(г/м3)
Тmin Tmax R s Состояние
почвы
00 24.03.17 150 (ЮВ) 4000 м  слаб. ливневой дождь  10/10 600 м кучево-дожд. 
[Cb cap]
+8 +6.8 92 +9  1023.7  -0.1  770  300           
03 24.03.17 090 (В) 10 км  слаб. ливневой дождь  10/10 600 м кучево-дожд. 
[Cb cap]
+7.7 +6.8 94 +8  1024.9  1.2  771  301      10     
06 24.03.17 050 (СВ) 10 км  слаб. ливневой дождь  10/10 600 м кучево-дожд. 
[Cb cap]
+8.5 +6.9 90 +10  1026.7  1.8  772  301         
09 24.03.17 070 (В) 10 км    10/10 600 м кучево-дожд. 
[Cb cap]
+9 +7.6 91 +9  1026.8  0.1  772  300           
12 24.03.17 050 (СВ) 10 км  слаб. ливневой дождь  10/10 600 м кучево-дожд. 
[Cb cap]
+8.6 +7.2 91 +7  1026.9  0.1  772  300           
15 24.03.17 090 (В) 10 км    10/10 600 м кучево-дожд. 
[Cb cap]
+8.5 +7 90 +8  1027.4  0.5  773  301         
18 24.03.17 110 (В) 4000 м    10/10 600 м 
[Sc]
+8.6 +7.2 91 +8  1028.1  0.7  773  301    +9.4       
21 24.03.17 тихо ()   4000 м    10/10 600 м 
[Sc]
+8.5 +7.4 93 +9  1026.8  -1.3  772  301           
00 25.03.17 тихо ()   4000 м    10/10 600 м 
[Sc]
+8.1 +7.4 95 +8  1025.2  -1.6  771  300           
03 25.03.17 260 (З) 10 км    10/10 600 м кучево-дожд. 
[Cb cap]
+7.4 +5.9 90 +8  1025.2  771  302           
06 25.03.17 160 (Ю) 20000 м    ясно 
+10.1 +8.2 88 +10  1024.4  -0.8  770  298         
09 25.03.17 160 (Ю) 20000 м    3/3 600 м 
[Cu hum]
+11.8 +8.4 80 +12  1022.1  -2.3  769  295           
12 25.03.17 120 (ЮВ) 20000 м    4/4 600 м 
[Cu hum]
+11.6 +8.8 83 +12  1019.9  -2.2  767  295           
15 25.03.17 200 (Ю) 20000 м    4/4 600 м средняя 
[Cu hum|Ac trans]
+10 +7.7 86 +10  1018.7  -1.2  766  296           
18 25.03.17 190 (Ю) 4000 м    ясно 
+9.5 +7.2 86 +9  1018.5  -0.2  766  297    +12       
21 25.03.17 180 (Ю) 4000 м    8/8 600 м 
[Sc]
+9.7 +8.1 90 +9  1017.7  -0.8  765  296           
00 26.03.17 270 (З) 4000 м    ясно 
+6.7 +5.5 92 +7  1017  -0.7  765  300           
03 26.03.17 290 (З) 10 км    10/10 600 м 
[Sc]
+7 +5.6 91 +8  1018  766  300           
06 26.03.17 110 (В) 20000 м    ясно 
+10.8 +7.4 79 +11  1018.3  0.3  766  296         
09 26.03.17 170 (Ю) 20000 м    3/3 600 м 
[Cu hum]
+12 +8.4 79 +12  1016.9  -1.4  765  294           
12 26.03.17 150 (ЮВ) 20000 м    3/3 600 м 
[Cu hum]
+11.5 +8.2 80 +11  1015.4  -1.5  764  294           
15 26.03.17 140 (ЮВ) 20000 м    3/3 600 м 
[Cu hum]
+10.6 +7.8 83 +11  1015.6  0.2  764  295           
18 26.03.17 090 (В) 4000 м    ясно 
+9.9 +8.2 89 +11  1015.4  -0.2  764  296    +12.4       
21 26.03.17 220 (ЮЗ) 4000 м    ясно 
+8.9 +8.1 95 +9  1014.1  -1.3  763  296           
00 27.03.17 030 (СВ) 4000 м    3/3 600 м 
[Cu hum]
+8.3 +7.4 94 +9  1013.4  -0.7  762  297           
Время (UTC), дата Ветер
(°,м/с) 
Видим.   Явления Облачность Т
(°С)
Тd
(°С)
f(%) Тe
(°С)
Pmin
(гПа)
dP
(гПа)
Po
(мм)
O2
(г/м3)
Тmin Tmax R s Состояние
почвы

Для получения пояснительной информации подведите курсор к названию столбца.

ПОГОДА в Астаре - архив

Всё, что Вы хотите узнать о погоде в Астаре - удобно и подробно!

Выберите нужную дату (начиная с 1 января 2015* года) и нажмите кнопку "Найти".
Будут отображены архивные сводки погоды по пункту Астара, начиная с указанной даты.


Отображать данные в формате CSV (для использования в таблицах Excel)


Внимание! Наш архив погоды предназначен исключительно для личного некоммерческого использования в познавательных целях. Если Вам необходимы официальные справки о состоянии погоды (для производственных, юридических, коммерческих и т.п. целей), обращайтесь в органы Росгидромета.

*Примечание: данная дата относится к архиву по метеостанциям СССР (Россия, СНГ, Балтия).
Архив по метеостанциям Зарубежной Европы и Азии (кроме Китая) хранится 10 дней, по другим регионам земного шара (Китай, Африка, Америка, Австралия, Океания) - 1 день.

Астара - район местоположения метеостанции


Название, широта, долгота, высота метеостанции:
Астара 38.4°ш. 48.9°д. -22 м над ур. моря [Азербайджан]

Дополнительная информация

В oтличие oт бoльшинства пoгoдных сайтoв мы публикуем пoдрoбную метеoинфoрмацию в детальнoм прoфессиoнальнoм фoрмате.

Характеристики температуры и влажнoсти вoздуха измеряются на высoте 2 м в тени вдали oт зданий и деревьев.
Скoрoсть ветра измеряется на высoте 10 м (на урoвне рoста челoвека скoрoсть ветра ниже в 1.5-2 раза). Если метеoстанция нахoдится в гoрoде или в лесу, тo скoрoсть ветра занижена на 2-4 м/с пo сравнению с oткрытым местoм. Скoрoсть ветра над акватoриями крупных рек и oзёр, а также на вершинах хoлмoв на 2-5 м/с выше, чем в oбычных услoвиях.
Атмoсфернoе давление в разных тoчках местнoсти мoжет значительнo oтличаться oт давления на метеoстанции, в зависимoсти oт услoвий рельефа (при пoдъёме на 10 м давление пoнижается примернo на 1 мм рт.ст.).